Location: Valdosta
(30.8330°N, 83.2790°W)
Time: 10:23:06
(UTC-05:00)

Daily predictions for brighter satellites

Satellite Brightness Start Highest point End
(mag) Time Altitude Azimuth Time Altitude Azimuth Time Altitude Azimuth
PAYLOAD A 4.0 17:51:03 10° SSE 17:55:50 90° S 18:00:50 10° NNW
Cosmos 1238 Rocket 3.8 17:53:25 10° SSW 17:56:10 36° W 17:59:01 10° NNW
Cosmos 2218 Rocket 4.2 17:55:15 10° N 18:01:29 78° W 18:07:37 10° S
USA 234 4.0 17:55:54 10° NNE 18:02:09 50° NW 18:08:24 10° WSW
Cosmos 1975 2.8 17:58:25 10° N 18:02:27 64° E 18:06:25 10° SSE
CZ-4 R/B 1.5 17:59:48 10° SSE 18:03:59 88° W 18:08:07 10° NNW
Meteor 1-13 Rocket 4.4 18:00:01 10° S 18:05:31 58° E 18:11:12 10° NNE
MSX 4.1 18:01:29 10° SE 18:06:58 48° ENE 18:12:27 10° N
MOS 1 4.3 18:01:27 10° SSE 18:07:05 78° ENE 18:12:45 10° N
Cosmos 2369 Rocket 4.1 18:06:35 10° ESE 18:07:13 10° E 18:07:52 10° E
KM-V1 2.9 18:06:13 10° W 18:09:01 82° N 18:10:48 12° E
CORIOLIS 4.1 18:05:45 10° SSE 18:11:08 70° ENE 18:16:29 10° N
Meteor 2-4 Rocket 4.3 18:06:39 10° SSE 18:11:26 33° E 18:16:11 10° NNE
CZ-2C R/B 2.5 18:07:07 10° SSE 18:12:05 86° ENE 18:17:14 10° N
Abrixas 4.5 18:12:44 10° N 18:14:14 13° NNE 18:15:00 12° NE
COSMO-SKYMED 1 2.8 18:12:40 10° NNE 18:16:53 48° E 18:21:03 10° S
CZ-3B DEB 4.1 18:14:44 10° NW 18:17:41 17° NNW 18:22:35 10° NNE
Cosmos 2056 Rocket 4.0 18:12:55 10° S 18:17:58 42° E 18:22:58 10° NNE
Cosmos 921 Rocket 3.3 18:17:58 10° SSW 18:22:10 70° WNW 18:26:29 10° N
Cosmos 1025 Rocket 3.4 18:18:21 10° SSE 18:22:27 41° E 18:26:36 10° NNE
Cosmos 1821 Rocket 4.4 18:19:01 10° NNE 18:24:38 38° E 18:30:14 10° SSE
Timation 2 Rocket 4.2 18:19:40 10° NNW 18:26:27 60° ENE 18:33:12 10° SE
Cosmos 1624 Rocket 4.0 18:25:52 10° S 18:30:58 64° ESE 18:36:07 10° NNE
ATLAS 2AS CENTAUR R/B 4.0 18:23:50 10° NW 18:31:21 50° WSW 18:38:17 10° S
Cosmos 1340 3.9 18:31:47 10° SE 18:34:42 21° E 18:34:56 21° E
YAOGAN 1 3.4 18:31:11 10° S 18:35:25 53° W 18:39:39 10° NNW
Cosmos 1371 Rocket 4.1 18:31:16 10° SSW 18:36:37 88° W 18:42:01 10° NNE
Meteor 2-21 Rocket 4.4 18:38:04 10° N 18:44:16 89° E 18:50:23 10° S
Meteor 2-16 Rocket 4.3 18:39:13 10° N 18:45:18 73° E 18:51:21 10° SSE
COSMOS 2487 3.8 18:42:38 10° NNW 18:46:03 43° WSW 18:49:26 10° S
Orbus 7S? 2.8 18:51:07 10° SSW 18:54:06 46° SE 18:54:06 46° SE
Cosmos 1666 2.7 18:53:05 10° N 18:56:54 55° E 19:00:43 10° SSE
CZ-3B R/B 3.9 18:55:36 10° WSW 18:58:40 20° SSW 18:59:23 17° S
Delta 2 Rocket 3.8 19:01:48 10° WNW 19:05:22 41° N 19:05:39 40° NNE
Cosmos 1727 Rocket 4.1 19:00:51 10° SSE 19:06:50 51° E 19:10:52 21° NNE
Cosmos 1452 Rocket 3.7 19:01:56 10° S 19:06:57 49° ESE 19:08:13 40° ENE
OAO 2 Rocket 4.4 19:03:40 10° SSW 19:08:09 30° SSE 19:09:08 28° SE
Cosmos 1833 Rocket 2.8 19:04:59 10° NNW 19:10:37 76° WSW 19:16:13 10° SSE
Cosmos 1190 Rocket 4.0 19:09:01 10° N 19:14:07 51° ENE 19:15:37 39° ESE
Cosmos 1892 Rocket 3.5 19:10:31 10° S 19:14:50 81° W 19:17:14 26° N
Cosmos 2082 Rocket 2.9 19:12:19 10° NNW 19:17:49 54° WSW 19:23:20 10° S
FALCON 9 R/B 3.3 18:58:01 10° W 19:21:42 72° N 19:24:36 41° ENE
Okean 2 4.4 19:23:46 10° SSW 19:27:45 46° W 19:30:08 22° NNW
Cosmos 1726 Rocket 3.5 19:23:23 10° N 19:27:51 83° W 19:32:18 10° S
Cosmos 1934 Rocket 4.4 19:31:00 10° NNW 19:37:08 61° W 19:43:20 10° S
Cosmos 1339 Rocket 4.3 19:37:43 10° S 19:43:48 86° W 19:45:55 43° N
Cosmos 2369 Rocket 2.2 19:44:50 10° SSW 19:50:28 74° WNW 19:50:46 72° NW
NOSS 3-4 (A) 4.0 20:00:24 10° NW 20:07:32 69° WSW 20:11:07 33° S
NOSS 3-4 (C) 4.0 20:00:30 10° NW 20:07:39 70° WSW 20:10:58 36° S
Cosmos 1943 Rocket 4.1 20:17:11 10° SSW 20:18:47 20° SSW 20:18:47 20° SSW
ATLAS 3B CENTAUR R/B 3.3 20:08:15 10° W 20:23:17 62° SSW 20:23:21 62° SSW
